Weather History for Santa Ynez, CA

Change the Weather History Date:

Wednesday, September 18, 2013

  Actual Average (KSBA) Record (KSBA)
Temperature  
Mean Temperature 66 °F 65 °F  
Max Temperature 86 °F 74 °F 104 °F (1979)
Min Temperature 46 °F 56 °F 45 °F (1947)
Degree Days  
Heating Degree Days 0 1  
Month to date heating degree days 18  
Since 1 July heating degree days 69  
Cooling Degree Days 1 1  
Month to date cooling degree days 33  
Year to date cooling degree days 160  
Growing Degree Days 16 (Base 50)    
Moisture  
Dew Point 47 °F    
Average Humidity 68    
Maximum Humidity 100    
Minimum Humidity 23    
Precipitation  
Precipitation 0.00 in 0.01 in 0.22 in (1963)
Month to date precipitation 0.09  
Year to date precipitation 12.29  
Since 1 July precipitation 0.24  
Sea Level Pressure  
Sea Level Pressure 29.80 in    
Wind  
Wind Speed 4 mph (West)    
Max Wind Speed 22 mph    
Max Gust Speed 28 mph    
Visibility 7 miles    
Events Fog    
T = Trace of Precipitation, MM = Missing Value Source: NWS Daily Summary

Daily Weather History Graph

Daily Weather History Graph

Search for Another Location

Airport:

Trip Planner

Search our weather history database for the weather conditions in past years. The results will help you decide how hot, cold, wet, or windy it might be!

Date:

Astronomy

Sep. 18, 2013 Rise Set
Actual Time 6:45 AM PDT 7:02 PM PDT
Civil Twilight 6:20 AM PDT 7:27 PM PDT
Nautical Twilight 5:51 AM PDT 7:56 PM PDT
Astronomical Twilight 5:21 AM PDT 8:26 PM PDT
Moon 6:29 PM PDT (9/18) 5:54 AM PDT (9/18)
Length of Visible Light 13h 06m
Length of Day
12h 16m
Waxing Gibbous, 99% of the Moon is Illuminated
Sep 18
Waxing Gibbous
Sep 19
Full
Sep 26
Last Quarter
Oct 4
New
Oct 11
First Quarter

Hourly Weather History & Observations

Time (PDT) Temp. Dew Point Humidity Pressure Visibility Wind Dir Wind Speed Gust Speed Precip Events Conditions
12:15 AM 51.8 °F 50.0 °F 94% 29.84 in 7.0 mi Calm Calm - N/A   Clear
12:35 AM 51.8 °F 50.0 °F 94% 29.83 in 7.0 mi Calm Calm - N/A   Clear
12:55 AM 51.8 °F 50.0 °F 94% 29.83 in 7.0 mi Calm Calm - N/A   Clear
1:15 AM 50.0 °F 46.4 °F 87% 29.83 in 7.0 mi Calm Calm - N/A   Clear
1:35 AM 50.0 °F 46.4 °F 87% 29.83 in 7.0 mi Calm Calm - N/A   Clear
1:55 AM 50.0 °F 46.4 °F 87% 29.83 in 7.0 mi Calm Calm - N/A   Scattered Clouds
2:15 AM 50.0 °F 46.4 °F 87% 29.83 in 7.0 mi Calm Calm - N/A   Overcast
2:35 AM 51.8 °F 48.2 °F 88% 29.83 in 3.0 mi Calm Calm - N/A   Overcast
2:55 AM 50.0 °F 48.2 °F 94% 29.83 in 0.5 mi Calm Calm - N/A Fog Fog
3:15 AM 50.0 °F 50.0 °F 100% 29.82 in 0.5 mi Calm Calm - N/A Fog Fog
3:35 AM 50.0 °F 48.2 °F 94% 29.82 in 0.8 mi Calm Calm - N/A   Overcast
3:55 AM 50.0 °F 50.0 °F 100% 29.81 in 0.5 mi Calm Calm - N/A Fog Fog
4:15 AM 50.0 °F 50.0 °F 100% 29.81 in 0.2 mi Calm Calm - N/A Fog Fog
4:35 AM 50.0 °F 50.0 °F 100% 29.81 in 0.2 mi Calm Calm - N/A Fog Fog
4:55 AM 50.0 °F 50.0 °F 100% 29.81 in 0.5 mi Calm Calm - N/A Fog Fog
5:15 AM 50.0 °F 48.2 °F 94% 29.81 in 0.5 mi Calm Calm - N/A Fog Fog
5:35 AM 50.0 °F 48.2 °F 94% 29.81 in 0.5 mi Calm Calm - N/A Fog Fog
5:55 AM 48.2 °F 46.4 °F 93% 29.81 in 0.8 mi Calm Calm - N/A   Overcast
6:15 AM 48.2 °F 46.4 °F 93% 29.82 in 0.8 mi Calm Calm - N/A   Overcast
6:35 AM 48.2 °F 46.4 °F 93% 29.82 in 0.8 mi Calm Calm - N/A   Overcast
6:55 AM 48.2 °F 46.4 °F 93% 29.82 in 0.2 mi Calm Calm - N/A Fog Fog
7:15 AM 46.4 °F 46.4 °F 100% 29.82 in 0.2 mi Calm Calm - N/A Fog Fog
7:35 AM 48.2 °F 46.4 °F 93% 29.83 in 0.2 mi Calm Calm - N/A Fog Fog
7:55 AM 48.2 °F 46.4 °F 93% 29.84 in 0.2 mi Calm Calm - N/A Fog Fog
8:15 AM 50.0 °F 48.2 °F 94% 29.84 in 0.5 mi Calm Calm - N/A Fog Fog
8:35 AM 50.0 °F 48.2 °F 94% 29.84 in 0.8 mi Calm Calm - N/A   Overcast
8:55 AM 50.0 °F 50.0 °F 100% 29.84 in 7.0 mi Calm Calm - N/A   Overcast
9:15 AM 51.8 °F 50.0 °F 94% 29.84 in 10.0 mi Calm Calm - N/A   Scattered Clouds
9:35 AM 53.6 °F 51.8 °F 94% 29.84 in 10.0 mi Calm Calm - N/A   Clear
9:55 AM 55.4 °F 53.6 °F 94% 29.83 in 10.0 mi Calm Calm - N/A   Clear
10:15 AM 60.8 °F 50.0 °F 68% 29.83 in 10.0 mi NW 4.6 mph - N/A   Clear
10:35 AM 62.6 °F 50.0 °F 63% 29.83 in 10.0 mi SW 3.5 mph - N/A   Clear
10:55 AM 64.4 °F 50.0 °F 59% 29.83 in 10.0 mi WNW 3.5 mph - N/A   Clear
11:15 AM 69.8 °F 48.2 °F 46% 29.82 in 10.0 mi SW 3.5 mph - N/A   Clear
11:35 AM 71.6 °F 46.4 °F 41% 29.81 in 10.0 mi Calm Calm - N/A   Clear
11:55 AM 73.4 °F 46.4 °F 38% 29.80 in 10.0 mi Calm Calm - N/A   Clear
12:15 PM 78.8 °F 46.4 °F 32% 29.80 in 10.0 mi West 8.1 mph - N/A   Clear
12:35 PM 80.6 °F 46.4 °F 30% 29.79 in 10.0 mi WSW 8.1 mph - N/A   Clear
12:55 PM 82.4 °F 46.4 °F 28% 29.78 in 10.0 mi West 11.5 mph 16.1 mph N/A   Clear
1:15 PM 86.0 °F 44.6 °F 23% 29.77 in 10.0 mi West 15.0 mph - N/A   Clear
1:35 PM 86.0 °F 44.6 °F 23% 29.76 in 10.0 mi West 16.1 mph 19.6 mph N/A   Clear
1:55 PM 84.2 °F 46.4 °F 27% 29.76 in 10.0 mi West 19.6 mph - N/A   Clear
2:15 PM 82.4 °F 46.4 °F 28% 29.76 in 10.0 mi WNW 21.9 mph - N/A   Clear
2:35 PM 80.6 °F 46.4 °F 30% 29.76 in 10.0 mi West 19.6 mph - N/A   Clear
2:55 PM 78.8 °F 46.4 °F 32% 29.76 in 10.0 mi West 19.6 mph - N/A   Clear
3:15 PM 78.8 °F 46.4 °F 32% 29.75 in 10.0 mi West 20.7 mph 25.3 mph N/A   Clear
3:35 PM 78.8 °F 46.4 °F 32% 29.75 in 10.0 mi West 21.9 mph 27.6 mph N/A   Clear
3:55 PM 78.8 °F 46.4 °F 32% 29.75 in 10.0 mi West 19.6 mph - N/A   Clear
4:15 PM 77.0 °F 46.4 °F 34% 29.75 in 10.0 mi West 19.6 mph - N/A   Clear
4:35 PM 75.2 °F 46.4 °F 36% 29.76 in 10.0 mi West 18.4 mph 21.9 mph N/A   Clear
4:55 PM 73.4 °F 46.4 °F 38% 29.76 in 10.0 mi West 15.0 mph 20.7 mph N/A   Clear
5:15 PM 73.4 °F 46.4 °F 38% 29.76 in 10.0 mi West 16.1 mph - N/A   Clear
5:35 PM 73.4 °F 46.4 °F 38% 29.77 in 10.0 mi West 12.7 mph - N/A   Clear
5:55 PM 73.4 °F 44.6 °F 36% 29.77 in 10.0 mi West 10.4 mph - N/A   Clear
6:15 PM 71.6 °F 44.6 °F 38% 29.77 in 10.0 mi West 13.8 mph - N/A   Clear
6:35 PM 69.8 °F 46.4 °F 43% 29.76 in 10.0 mi West 12.7 mph - N/A   Clear
6:55 PM 66.2 °F 46.4 °F 49% 29.77 in 10.0 mi West 12.7 mph - N/A   Clear
7:15 PM 62.6 °F 46.4 °F 55% 29.78 in 10.0 mi West 12.7 mph - N/A   Clear
7:35 PM 62.6 °F 46.4 °F 55% 29.78 in 10.0 mi West 11.5 mph - N/A   Clear
7:55 PM 60.8 °F 46.4 °F 59% 29.80 in 10.0 mi West 11.5 mph - N/A   Clear
8:15 PM 59.0 °F 46.4 °F 63% 29.81 in 10.0 mi West 6.9 mph - N/A   Clear
8:35 PM 59.0 °F 46.4 °F 63% 29.81 in 10.0 mi West 5.8 mph - N/A   Clear
8:55 PM 59.0 °F 46.4 °F 63% 29.82 in 10.0 mi West 4.6 mph - N/A   Clear
9:15 PM 59.0 °F 46.4 °F 63% 29.82 in 10.0 mi Calm Calm - N/A   Clear
9:35 PM 57.2 °F 46.4 °F 67% 29.82 in 10.0 mi Calm Calm - N/A   Clear
9:55 PM 55.4 °F 46.4 °F 72% 29.82 in 10.0 mi Calm Calm - N/A   Clear
10:15 PM 55.4 °F 46.4 °F 72% 29.82 in 10.0 mi Calm Calm - N/A   Clear
10:35 PM 53.6 °F 44.6 °F 72% 29.82 in 10.0 mi WSW 6.9 mph - N/A   Clear
10:55 PM 51.8 °F 46.4 °F 82% 29.82 in 10.0 mi Calm Calm - N/A   Clear
11:15 PM 53.6 °F 46.4 °F 77% 29.82 in 10.0 mi Calm Calm - N/A   Clear
11:35 PM 51.8 °F 46.4 °F 82% 29.82 in 10.0 mi Calm Calm - N/A   Clear
11:55 PM 51.8 °F 46.4 °F 82% 29.82 in 7.0 mi Calm Calm - N/A   Clear